{"data":{"norad_id":48773,"epoch":"2026-05-24T20:03:27.937728Z","epoch_age_seconds":96077,"freshness":"FRESH","line1":"1 48773U 21045G   26144.83574002 -.00000062  00000+0 -19896-3 0  9992","line2":"2 48773  87.8986 263.8600 0001470 101.9436 258.1859 13.15546853241262","mean_motion":13.15546853,"eccentricity":0.000147,"inclination_deg":87.8986,"raan_deg":263.86,"arg_perigee_deg":101.9436,"mean_anomaly_deg":258.1859,"bstar":-0.00019896,"rev_number":24126,"period_min":109.46018355152,"perigee_km":1200.6630385678,"apogee_km":1202.8915333679,"semimajor_km":7579.9142859679,"source":"CELESTRAK","updated_at":"2026-05-25T13:38:22.442470Z"}}